Regional Weather Roundup
Issued by NWS

Home | Current Version | Previous Version | Graphics & Text | Print | Product List | Glossary On
Versions: 1 2 3 4 5 6 7 8 9 10 11 12 13 14 15 16 17 18 19 20 21 22 23 24 25 26 27 28 29 30 31 32 33 34 35 36 37 38 39 40 41 42 43 44 45 46 47 48 49 50
439
ASUS45 KTFX 290410
RWRMT
MONTANA REGIONAL WEATHER ROUNDUP
NATIONAL WEATHER SERVICE GREAT FALLS MT
1000 PM MDT TUE MAR 28 2017

NOTE: "FAIR" INDICATES FEW OR NO CLOUDS BELOW 12000 FEET WITH NO
SIGNIFICANT WEATHER AND/OR OBSTRUCTIONS TO VISIBILITY.

MTZ001>007-043-290500-
WEST OF THE DIVIDE

CITY           SKY/WX    TMP DP  RH WIND       PRES   REMARKS
KALISPELL      CLOUDY    43  31  62 SW12      30.16R
MISSOULA       MOCLDY    42  30  62 N3        30.20S
BUTTE          CLOUDY    37  21  52 NW6       30.16R
MULLAN PASS    LGT SNOW  28  28 100 VRB7      30.14R VSB 1   WCI  21
ANACONDA         N/A     41  21  45 W8        30.16R
DEER LODGE       N/A     37  25  60 CALM      30.18S
EUREKA           N/A     45  30  57 S9        30.14S
HAMILTON         N/A     45  27  49 CALM      30.19S
RONAN            N/A     42  33  70 E3        30.21S
$$

MTZ008-052>055-290500-
SOUTHWEST MONTANA

CITY           SKY/WX    TMP DP  RH WIND       PRES   REMARKS
BOZEMAN        CLOUDY    38  27  64 N7        30.12R
DILLON         CLOUDY    39  21  48 SW12      30.14R WCI  32
W YELLOWSTONE  CLOUDY    32  18  55 S7        30.17F WCI  26
ENNIS          CLEAR     39  21  48 S8        30.19R
THREE FORKS      N/A     42  42 100 CALM      30.11R
TWIN BRIDGES     N/A     44  18  35 NE3       30.11
$$

MTZ009-010-012-014-046-048-049-054-290500-
EAST SLOPES AND CENTRAL MONTANA

CITY           SKY/WX    TMP DP  RH WIND       PRES   REMARKS
CUT BANK       CLOUDY    41  25  53 W23G33    30.00F
GREAT FALLS    CLOUDY    41  23  48 SW14      30.06S
MALMSTROM AFB  CLOUDY    44  24  46 SW18      30.07S
HELENA         PTCLDY    46  24  42 NW6       30.12S
AUGUSTA        MOCLDY    41  22  47 W20G28    30.04F
BOWMANS CRNR   MOCLDY    39  25  56 SW14      30.06R WCI  31
CHOTEAU          N/A     41  25  52 W3        30.06S
CONRAD           N/A     41  32  70 SW13      30.05S
FAIRFIELD      CLOUDY    42  24  49 SW8       30.05S
POWER          MOCLDY    40  23  50 SW12      30.04F
RAYNESFORD     MOCLDY    43  23  44 W12       30.08R
$$

MTZ011-013-016-021-045-047-050-051-290500-
NORTH CENTRAL MONTANA

CITY           SKY/WX    TMP DP  RH WIND       PRES   REMARKS
HAVRE          CLOUDY    40  27  59 S10       30.03R
LEWISTOWN      CLOUDY    35  21  56 S9        30.08R WCI  28
N BAR RANCH      N/A     32  19  59 W7        30.10S WCI  26
CHINOOK          N/A     46  25  42 SW7       30.02R
DENTON         MOCLDY    41  23  47 W10       30.04R
FORT BENTON      N/A     46  25  42 MISG      30.06S
GEYSER         MOCLDY    37  23  57 SW10      30.07R WCI  30
GRASS RANGE      N/A     37  23  56 SW7       30.04S WCI  32
JUDITH GAP       N/A     38  19  47 S3        30.07F
STANFORD       MOCLDY    37  23  56 W8        30.07S WCI  30
WINIFRED         N/A     40  22  48 S6        30.06S
$$

MTZ017>020-022>027-061-062-290500-
NORTHEAST MONTANA

CITY           SKY/WX    TMP DP  RH WIND       PRES   REMARKS
GLASGOW        CLOUDY    42  30  62 SE7       30.05R
JORDAN           N/A     46  31  55 CALM      30.06S
SIDNEY         FOG       36  36 100 S3        30.11F VSB 3/4
WOLF POINT     CLEAR     40  35  83 CALM      30.08R
MALTA          CLEAR     41  30  65 S5        30.03S
PLENTYWOOD       N/A     37  37 100 SE6       30.08S
POPLAR           N/A     43  37  81 SE7       30.08S
$$

MTZ028>42-056>058-290500-
SOUTHCENTRAL AND SOUTHEAST MONTANA

CITY           SKY/WX    TMP DP  RH WIND       PRES   REMARKS
BAKER          CLOUDY    46  38  73 NE3       30.13R
BILLINGS       CLEAR     45  34  65 S6        30.09R
LIVINGSTON     CLOUDY    38  24  57 W9        30.09S WCI  31
MILES CITY     CLEAR     43  33  68 SE6       30.11R
BIG TIMBER     CLEAR     41  23  48 SW12      30.11S
FORSYTH          N/A     45  37  76 S7        30.10R
HARLOWTON        N/A     39  20  47 NW8       30.08S
LAUREL           N/A     41  22  47 SW1       30.07F
$$

REGIONAL REPORTS...DAKOTAS

CITY           SKY/WX    TMP DP  RH WIND       PRES   REMARKS
WILLISTON      CLEAR     36  35  96 CALM      30.11R FOG
MINOT          CLOUDY    47  40  76 SW3       30.12R
DICKINSON      CLOUDY    40  39  97 S7        30.10S
BEACH          CLOUDY    43  41  93 SW3       30.16S
TIOGA          CLOUDY    43  43 100 E7        30.11S FOG
WATFORD CITY   MOCLDY    43  43 100 S5        30.11R
BISMARCK       CLOUDY    45  38  76 S7        30.16R
GRAND FORKS    MOCLDY    37  37 100 NW5       30.22R
FARGO          PTCLDY    42  39  89 NW5       30.20S
BUFFALO SD       N/A     43  40  89 S9        30.06S
RAPID CITY     CLOUDY    42  41  96 S8        30.13S FOG
$$

REGIONAL REPORTS...WYOMING/IDAHO/WASHINGTON

CITY           SKY/WX    TMP DP  RH WIND       PRES   REMARKS
GILLETTE       CLOUDY    42  37  82 W5        30.13R
SHERIDAN       CLEAR     33  31  92 NW6       30.14R WCI  28
BUFFALO WY     CLEAR     38  32  79 S8        30.15S
CODY           CLEAR     36  28  73 S3        30.14R
YELLOWSTONE LA   N/A     24  18  77 CALM      30.21R
IDAHO FALLS    CLOUDY    42  29  59 S14       30.21R
SALMON         PTCLDY    39  25  56 SW3       30.17R
BOISE          PTCLDY    48  30  49 CALM      30.26R
SPOKANE        MOCLDY    43  39  86 S7        30.19S
$$

REGIONAL REPORTS...ALBERTA

CITY           SKY/WX    TMP DP  RH WIND       PRES   REMARKS
EDMONTON       MOCLDY    34  32  93 NE5       29.84R
CALGARY        PTCLDY    45  18  33 W20       29.87R
LETHBRIDGE     MOCLDY    43  25  49 SW16      29.95R
MEDICINE HAT   PTCLDY    46  27  46 S12G17    29.93S
WATERTON GATE    N/A     39  23  52 SW22G37     N/A  WCI  29
CARDSTON         N/A     41  23  48 SW8         N/A
MILK RIVER       N/A     43  27  52 W15         N/A
ONEFOUR          N/A     43  27  52 W10         N/A
$$

REGIONAL REPORTS...SASKATCHEWAN

CITY           SKY/WX    TMP DP  RH WIND       PRES   REMARKS
SWIFT CURRENT  CLOUDY    43  28  56 S13       29.94F
REGINA         FOG       36  36 100 SE18      30.04S VSB 1/2 WCI  25
SASKATOON      PTCLDY    37  34  87 SE12      29.95F WCI  30
VAL MARIE        N/A     36  27  69 S5          N/A
ROCKGLEN         N/A     39  23  52 S6          N/A
$$




USA.gov is the U.S. government's official web portal to all federal, state and local government web resources and services.